Location: Street
(51.1247°N, 2.7429°W)
Time: 04:37:04
(UTC+00:00)

SR - Pass Details

Date: 28 November 2020
Orbit: 575 x 880 km, 66.7° (Epoch: 25 January)

Event Time Altitude Azimuth Distance (km) Brightness Sun altitude
Rises 20:22:49 0° 249° (WSW) 2,849 ? -38.9°
Enters shadow 20:25:09 10° 260° (W) 2,002 ? -39.2°
Reaches altitude 10° 20:25:12 10° 260° (W) 1,982 - -39.2°
Maximum altitude 20:29:12 31° 324° (NW) 1,138 - -39.8°
Drops below altitude 10° 20:33:29 10° 27° (NNE) 2,142 - -40.5°
Sets 20:36:10 0° 37° (NE) 3,119 - -40.9°
